Regional Weather Roundup
Issued by NWS

Current Version | Previous Version | Graphics & Text | Print | Product List | Glossary On
Versions: 1 2 3 4 5 6 7 8 9 10 11 12 13 14 15 16 17 18 19 20 21 22 23 24 25 26 27 28 29 30 31 32 33 34 35 36 37 38 39 40 41 42 43 44 45 46 47 48 49 50
000
ASUS42 KFFC 261010
RWRGA
WEATHER ROUNDUP FOR GEORGIA
NATIONAL WEATHER SERVICE PEACHTREE CITY GA
600 AM EDT SUN JUN 26 2022

NOTE: "FAIR" INDICATES FEW OR NO CLOUDS BELOW 12,000 FEET WITH NO
SIGNIFICANT WEATHER AND/OR OBSTRUCTIONS TO VISIBILITY.

* = USE WITH CAUTION. THE STATIONS MARKED WITH AN ASTERISK MAY NOT
REPORT WEATHER SUCH AS PRECIPITATION, FOG, OR THUNDER AND ARE NOT
QUALITY CONTROLLED BY NWS.

THE REMARK "TC" DENOTES TEMPERATURE READING IN DEGREES CELSIUS.

GAZ001>058-261100-
NORTH GEORGIA

CITY           SKY/WX    TMP DP  RH WIND       PRES   REMARKS
ATLANTA        PTCLDY    75  64  68 SE3       30.14R
ATHENS         PTCLDY    70  63  78 CALM      30.16R
CHAMBLEE       PTCLDY    71  63  75 CALM      30.15R
PEACHTREE CITY CLEAR     69  66  90 CALM      30.14R
ROME           CLEAR     72  68  87 MISG      30.12R
WEST ATLANTA   PTCLDY    70  66  87 CALM      30.13R
GAINESVILLE    PTCLDY    72  64  76 CALM      30.19R
CARTERSVILLE   CLEAR     73  64  73 E7        30.14R


CITY           SKY/WX    TMP DP  RH WIND       PRES   REMARKS
DALTON*        PTCLDY    72  68  88 CALM      30.15R
LAWRENCEVILLE* CLEAR     71  65  81 CALM      30.16R
MARIETTA       PTCLDY    74  64  69 E5        30.14R
KENNESAW*      PTCLDY    74  64  71 E5        30.16R
CANTON*          N/A     72  68  88 CALM      30.18S
BLAIRSVILLE*   CLOUDY    70  64  81 CALM      30.22R
$$

GAZ059>098-102>109-261100-
CENTRAL GEORGIA

CITY           SKY/WX    TMP DP  RH WIND       PRES   REMARKS
AUGUSTA-BUSH   PTCLDY    65  64  97 CALM      30.12R
AUGUSTA-DANIEL PTCLDY    73  66  78 CALM      30.14R
COLUMBUS       CLEAR     75  71  87 E3        30.09R
MACON            N/A    N/A N/A N/A MISG      30.12R
ROBINS AFB     PTCLDY    71  69  96 CALM      30.11R


CITY           SKY/WX    TMP DP  RH WIND       PRES   REMARKS
LAGRANGE*      CLEAR     70  68  93 CALM      30.12R
MILLEDGEVILLE* PTCLDY    73  70  88 CALM      30.15R
$$

GAZ099>101-110>166-261100-
SOUTH GEORGIA

CITY           SKY/WX    TMP DP  RH WIND       PRES   REMARKS
SAVANNAH       PTCLDY    70  68  93 CALM      30.10R
VALDOSTA       CLEAR     70  68  93 CALM      30.08S
ALMA           PTCLDY    67  67 100 CALM      30.08F FOG
ST SIMONS      PTCLDY    80  69  69 E5        30.06S
FT STEWART     PTCLDY    69  68  96 CALM      30.07R
ALBANY         PTCLDY    73  69  87 CALM      30.10R
HUNTER AFB     MOCLDY    71  69  95 CALM      30.07R
MOODY AFB      CLEAR     69  67  94 CALM      30.07S
BRUNSWICK      CLEAR     68  67  98 CALM      30.08R


CITY           SKY/WX    TMP DP  RH WIND       PRES   REMARKS
BAINBRIDGE*    CLEAR     73  70  91 SE6       30.07S
MOULTRIE*      CLEAR     70  68  94 E3        30.09S
VIDALIA*       CLEAR     72  70  94 CALM      30.12R
WAYCROSS*      PTCLDY   N/A N/A N/A CALM      30.08S
DOUGLAS*       PTCLDY    70  69  97 CALM      30.11S
$$



USA.gov is the U.S. government's official web portal to all federal, state and local government web resources and services.